EW7034 Weather Reports


time (UTC)temp
F
wind
direction
speed
knots
gust
knots
rain 1hr
in
rain 24hr
in
rain mn
in
humidity
%
barometer
mb
20260503050005 49 0.0 0.0 0.00 0.15 0.00 96 1010.9
20260503044504 49 0.0 0.0 0.00 0.15 0.00 95 1010.8
20260503043015 49 0.0 0.0 0.00 0.15 0.00 95 1010.6
20260503041512 49 0.0 0.0 0.00 0.15 0.00 95 1010.7
20260503040012 49 0.0 0.0 0.00 0.15 0.00 95 1010.8
20260503034505 49 0.0 0.0 0.00 0.15 0.00 95 1010.9
20260503033020 49 0.0 0.0 0.00 0.15 0.00 95 1011.1
20260503031514 49 0.0 0.0 0.00 0.15 0.00 95 1011.2
20260503030028 49 0.0 0.0 0.00 0.15 0.00 96 1011.2
20260503024528 49 0.0 0.0 0.00 0.15 0.00 95 1011.3
20260503023007 49 0.0 0.0 0.00 0.15 0.00 96 1011.4
20260503021513 49 0.0 0.0 0.00 0.15 0.00 95 1011.4
20260503020020 49 0.0 0.0 0.00 0.15 0.00 95 1011.5
20260503014520 48 0.0 0.0 0.00 0.15 0.00 95 1011.5
20260503013017 48 0.0 0.0 0.00 0.15 0.00 95 1011.6
20260503011510 48 0.0 0.0 0.00 0.15 0.00 95 1011.7
20260503010020 48 0.0 0.0 0.00 0.15 0.00 95 1011.7
20260503004522 48 0.0 0.0 0.00 0.15 0.00 95 1011.9
20260503003020 48 0.0 0.0 0.00 0.15 0.00 95 1011.8
20260503001520 48 0.0 0.0 0.00 0.15 0.00 95 1011.9
20260503000027 48 0.0 0.0 0.00 0.15 0.00 95 1011.8
20260502234518 48 0.0 0.0 0.00 0.15 0.00 95 1011.9
20260502233023 48 0.0 0.0 0.00 0.15 0.00 95 1012.0
20260502231522 48 0.0 0.0 0.00 0.15 0.00 94 1012.0
20260502230024 48 0.0 0.0 0.00 0.15 0.00 94 1012.0
20260502224517 48 0.0 0.0 0.00 0.15 0.15 94 1012.1
20260502223021 49 0.0 0.0 0.00 0.15 0.15 94 1012.1
20260502221501 49 0.0 0.0 0.00 0.15 0.15 94 1012.1
20260502220000 49 0.0 0.0 0.00 0.15 0.15 94 1012.2
20260502214514 49 0.0 0.0 0.00 0.15 0.15 93 1012.2
20260502213034 49 0.0 0.0 0.00 0.15 0.15 93 1012.3
20260502211503 49 0.0 0.0 0.00 0.15 0.15 93 1012.3
20260502210006 50 0.0 0.0 0.01 0.14 0.14 93 1012.4
20260502204509 50 0.0 0.0 0.02 0.14 0.14 93 1012.5
20260502203012 50 0.0 0.0 0.03 0.14 0.14 93 1012.6
20260502201526 50 0.0 0.0 0.04 0.14 0.14 93 1012.5
20260502200004 50 0.0 0.0 0.03 0.13 0.13 93 1012.6
20260502194507 51 0.0 0.0 0.03 0.12 0.12 92 1012.7
20260502193010 51 0.0 0.0 0.03 0.11 0.11 92 1012.7
20260502191522 51 0.0 0.0 0.03 0.10 0.10 92 1012.7
20260502190023 51 0.0 0.0 0.03 0.09 0.09 91 1012.7
20260502184504 51 0.0 0.0 0.02 0.08 0.08 91 1012.8
20260502183010 52 0.0 0.0 0.02 0.07 0.07 91 1012.8
20260502181513 52 0.0 0.0 0.00 0.06 0.06 91 1012.7
20260502163020 52 0.0 0.0 0.02 0.04 0.04 90 1012.9
20260502161508 53 0.0 0.0 0.04 0.04 0.04 89 1013.0
20260502151519 54 0.0 0.0 0.00 0.00 0.00 87 1013.4
20260502123018 55 0.0 0.0 0.00 0.00 0.00 81 1014.7
20260502121508 55 0.0 0.0 0.00 0.00 0.00 80 1015.0
20260502114510 55 0.0 0.0 0.00 0.00 0.00 75 1015.2
20260502113016 56 0.0 0.0 0.00 0.00 0.00 76 1015.1
20260502111519 56 0.0 0.0 0.00 0.00 0.00 76 1015.1
20260502110004 56 0.0 0.0 0.00 0.00 0.00 78 1014.9
20260502104507 55 0.0 0.0 0.00 0.00 0.00 78 1015.3
20260502103018 56 0.0 0.0 0.00 0.00 0.00 76 1015.3
20260502101515 55 0.0 0.0 0.00 0.00 0.00 79 1015.3
20260502091515 54 0.0 0.0 0.00 0.00 0.00 80 1015.7
20260502071511 50 0.0 0.0 0.00 0.00 0.00 88 1015.9
20260502070016 49 0.0 0.0 0.00 0.00 0.00 88 1016.0
20260502064537 48 0.0 0.0 0.00 0.00 0.00 89 1016.0
20260502063017 47 0.0 0.0 0.00 0.00 0.00 91 1016.1
20260502061514 46 0.0 0.0 0.00 0.00 0.00 91 1016.1
20260502060014 46 0.0 0.0 0.00 0.00 0.00 92 1016.1
20260502054517 44 0.0 0.0 0.00 0.00 0.00 93 1016.1
20260502053017 43 0.0 0.0 0.00 0.00 0.00 92 1016.1
20260502051514 43 0.0 0.0 0.00 0.00 0.00 92 1016.1